Regional Weather Roundup
Issued by NWS

Home | Current Version | Previous Version | Graphics & Text | Print | Product List | Glossary On
Versions: 1 2 3 4 5 6 7 8 9 10 11 12 13 14 15 16 17 18 19 20 21 22 23 24 25 26 27 28 29 30 31 32 33 34 35 36 37 38 39 40 41 42 43 44 45 46 47 48 49 50
313
ASUS43 KLMK 240102
RWRKY
KENTUCKY REGIONAL WEATHER ROUNDUP
NATIONAL WEATHER SERVICE LOUISVILLE KY
900 PM EDT MON MAY 23 2016

NOTE "FAIR" INDICATES FEW OR NO CLOUDS BELOW 12,000 FEET
WITH NO SIGNIFICANT WEATHER AND/OR OBSTRUCTIONS TO VISIBILITY.

KYZ001>023-026-027-061>063-070>075-240200-
WESTERN AND SOUTH CENTRAL KENTUCKY

CITY           SKY/WX    TMP DP  RH WIND       PRES   REMARKS
PADUCAH        CLOUDY    73  58  59 CALM      29.94R
HENDERSON      CLEAR     75  48  38 SE3       29.95S
OWENSBORO      CLEAR     75  51  42 CALM      29.98R
HOPKINSVILLE   CLOUDY    75  54  47 SE3       29.97R
BOWLING GREEN  CLEAR     71  50  47 CALM      29.99R
GLASGOW        NOT AVBL
$$

KYZ024-025-028>034-038-045-046-053-240200-
NORTH CENTRAL KENTUCKY

CITY           SKY/WX    TMP DP  RH WIND       PRES   REMARKS
LOUISVILLE/SDF PTCLDY    73  45  36 E5        29.99R
LOUISVILLE/LOU CLEAR     75  46  35 E3        30.00R
FORT KNOX      CLEAR     65  50  58 NE3       29.99R
$$

KYZ035>037-039>044-047>052-055>060-089>105-240200-
NORTHEAST KENTUCKY

CITY           SKY/WX    TMP DP  RH WIND       PRES   REMARKS
LEXINGTON      CLEAR     70  49  47 CALM      30.03R
COVINGTON      CLEAR     68  50  52 CALM      30.02R
FRANKFORT      CLEAR     69  49  48 E3        30.01R
$$

KYZ054-064>069-076>088-106>120-240200-
SOUTHEAST KENTUCKY

CITY           SKY/WX    TMP DP  RH WIND       PRES   REMARKS
JACKSON        CLEAR     66  48  52 CALM      30.04R
LONDON         CLEAR     67  48  50 CALM      30.03R
SOMERSET       NOT AVBL
MIDDLESBORO    CLEAR     65  54  67 CALM      30.03R
MONTICELLO     CLEAR     62  53  72 N5        30.03R
$$





USA.gov is the U.S. government's official web portal to all federal, state and local government web resources and services.